GFSFLT2_sfc_30mbdewp_072.txt.gz
Dewpoint
66 66 67 66 68 67 66 65 67 66 65 65 63 65 65 66 66 66 65 65 65 64 63 61 59 59 59 59 58 57 55 54
66 65 64 64 64 65 65 66 64 64 64 62 63 64 65 65 66 65 64 64 64 63 62 60 58 59 58 58 58 56 55 55
65 65 63 63 63 64 65 65 64 64 63 61 62 64 64 65 64 64 64 63 63 62 60 58 58 59 58 58 55 55 55 55
64 64 63 63 62 63 63 63 63 62 61 62 60 59 64 63 64 64 63 62 62 61 59 57 55 56 56 55 54 54 55 55
63 63 62 62 61 61 61 61 62 61 60 60 59 60 64 63 63 62 62 62 61 59 57 53 52 51 52 53 54 54 55 55
63 62 61 60 61 61 60 60 59 59 60 60 59 61 63 62 61 61 60 59 59 57 54 52 51 51 52 53 53 54 54 55
62 62 62 61 61 61 60 60 59 58 58 60 63 62 61 61 60 60 59 58 56 55 52 50 50 51 53 53 53 54 54 55
61 62 61 60 60 60 60 60 61 59 58 58 62 61 60 59 59 59 57 56 55 53 51 48 48 51 52 52 53 53 54 54
60 60 61 59 59 60 60 60 61 61 59 60 63 61 59 59 57 56 55 53 52 51 51 47 48 51 52 52 53 53 53 53
59 60 59 60 60 60 60 60 61 61 62 61 62 59 57 56 54 54 53 51 50 50 52 47 47 51 52 52 52 52 52 53
59 59 59 59 60 60 59 60 61 61 62 62 62 58 56 54 54 54 52 50 49 51 52 49 48 50 52 52 53 52 52 53
58 58 58 58 58 59 59 59 59 60 61 61 61 59 56 54 54 55 53 49 50 52 52 50 49 50 50 51 53 53 53 52
57 58 58 57 57 57 58 57 58 59 60 60 59 60 58 54 53 56 53 53 52 52 52 49 49 50 48 49 51 53 53 52
57 57 58 58 56 57 56 57 58 58 59 59 59 58 59 56 53 57 56 54 55 53 51 49 48 49 47 47 46 47 50 52
57 57 57 57 57 56 56 56 57 57 57 58 59 58 57 58 55 56 56 56 54 53 50 48 47 48 47 46 43 44 45 46
57 57 57 57 57 56 55 54 54 55 56 57 57 58 57 56 57 56 55 56 54 53 51 48 47 46 46 46 45 44 43 42
56 56 56 56 56 55 55 54 54 55 56 56 56 57 56 55 56 56 55 56 55 53 53 50 48 46 44 46 47 50 49 45
56 55 55 56 56 56 55 54 54 54 54 54 55 55 55 54 55 55 55 55 56 54 54 52 49 45 45 45 46 46 48 49
55 55 54 55 56 55 54 53 53 53 53 53 53 54 54 52 53 55 54 54 55 54 54 54 52 48 47 48 51 48 50 49
55 54 53 54 55 55 55 54 53 52 53 53 52 53 53 53 53 54 56 54 54 55 54 54 54 53 53 53 53 54 54 54

GFSFLT2_sfc_30mbdewp_078.txt.gz
Dewpoint
68 68 68 69 69 69 67 67 67 68 67 65 65 63 64 64 65 66 65 66 67 66 65 64 64 63 62 61 60 59 58 59
65 67 67 68 68 69 67 67 66 65 64 64 63 61 62 62 64 64 64 66 66 65 64 64 63 62 61 59 58 56 56 57
65 65 66 66 66 66 67 66 65 64 63 62 62 62 62 62 64 64 65 65 65 63 63 63 62 61 60 59 55 54 55 55
64 64 63 63 65 66 66 65 64 63 62 61 60 61 61 62 62 64 63 64 63 62 63 62 60 59 59 56 55 54 54 55
63 63 62 62 63 64 65 64 63 63 62 60 60 62 62 63 62 63 62 63 60 60 61 59 58 58 55 55 54 54 54 54
62 62 63 62 62 63 63 63 63 62 62 62 62 62 62 61 62 62 62 61 58 59 59 57 57 55 54 55 54 54 53 54
61 62 62 62 62 61 61 62 62 62 62 61 61 61 61 62 62 62 62 60 57 55 55 55 54 54 54 54 54 54 54 54
61 61 61 61 61 60 60 61 61 61 61 61 60 60 60 61 62 61 60 59 56 53 53 53 53 53 53 54 54 54 55 55
61 61 60 60 60 60 59 59 59 59 60 60 59 60 60 61 61 60 59 58 55 52 51 52 52 53 53 53 54 54 55 55
60 60 60 59 59 60 60 59 58 58 59 60 60 59 62 62 61 60 58 57 54 51 50 52 52 52 52 53 53 54 54 55
59 59 59 58 58 58 58 60 60 60 59 59 60 59 60 61 60 58 56 55 54 51 50 51 52 52 52 52 53 53 54 54
58 59 58 58 57 58 59 59 60 60 60 59 59 60 60 61 59 56 56 54 52 50 49 50 52 52 52 52 52 53 53 53
58 58 58 57 56 56 57 57 58 59 61 61 60 59 60 59 57 55 54 52 52 51 49 50 51 52 51 51 51 52 52 52
57 57 57 57 58 58 56 57 58 59 60 59 58 58 58 56 55 54 52 51 51 51 48 49 51 52 50 50 49 50 51 52
57 57 56 57 57 57 57 57 58 58 58 59 58 58 57 56 55 53 50 50 51 51 49 48 50 51 51 49 48 47 50 51
57 56 55 56 56 56 56 55 55 56 58 59 59 58 57 56 55 53 50 49 50 51 51 48 50 50 49 49 49 49 48 47
56 56 55 55 55 55 54 55 55 56 57 58 58 59 57 56 57 53 52 52 52 52 52 50 50 50 48 48 47 48 48 46
56 56 56 55 55 54 54 54 54 55 55 56 57 57 58 57 57 56 56 55 54 54 53 51 50 50 49 48 47 46 46 45
55 54 54 54 54 54 54 54 54 54 55 56 56 56 56 57 57 57 56 55 55 54 54 52 51 49 50 49 49 48 49 47
54 54 53 54 53 54 54 54 54 54 55 55 56 56 56 57 57 57 55 57 57 55 55 55 54 54 52 50 49 49 50 50

GFSFLT2_sfc_30mbdewp_084.txt.gz
Dewpoint
68 68 68 67 67 69 68 69 69 68 69 68 65 65 64 65 65 64 64 64 65 67 67 67 66 65 64 63 63 62 60 60
68 68 68 67 67 67 68 68 68 68 68 67 65 64 65 65 65 65 64 64 65 66 67 66 65 64 63 62 62 61 58 58
68 68 68 68 68 68 68 68 67 67 66 66 64 64 65 65 64 64 64 64 65 66 66 65 64 63 62 61 60 58 57 56
66 67 68 68 67 68 68 67 67 66 65 65 64 64 64 63 62 63 63 65 65 66 65 64 63 62 61 60 58 57 56 55
65 67 67 67 66 67 68 68 67 66 65 65 64 63 62 60 59 62 63 62 62 64 64 62 61 60 59 58 56 57 53 53
65 66 66 66 66 66 67 66 66 66 65 65 63 62 61 59 59 58 61 61 61 64 63 61 60 59 58 57 56 53 52 51
64 65 65 65 65 65 65 65 65 65 64 64 63 61 60 58 57 60 63 64 63 63 62 61 60 58 57 56 55 53 52 50
63 63 64 64 64 63 64 64 64 64 64 63 62 60 60 60 60 62 62 62 63 62 61 60 58 56 56 55 54 53 52 50
62 63 63 63 62 62 64 63 64 64 63 62 62 61 61 61 61 61 62 62 63 62 60 59 56 55 55 55 54 52 50 50
62 62 62 63 62 61 61 63 63 63 63 63 62 61 62 61 61 62 62 61 62 61 59 56 55 54 54 53 51 50 51 51
61 62 62 62 61 61 61 62 62 62 63 62 62 61 61 61 61 62 61 60 61 60 59 55 54 53 53 52 51 51 52 51
60 61 62 61 60 60 60 61 61 61 61 61 61 61 61 62 62 62 61 59 59 59 57 55 54 52 51 51 52 52 52 51
60 61 61 61 60 59 59 59 60 60 60 60 61 61 61 61 61 61 60 58 58 58 57 55 54 53 51 52 52 52 53 52
60 60 61 60 58 58 58 58 59 58 58 59 60 60 60 61 61 60 59 58 57 57 57 55 54 53 51 51 50 52 53 53
59 60 60 59 57 58 58 58 58 58 58 59 60 60 60 60 60 60 59 58 56 56 57 55 53 53 51 49 48 46 50 52
58 59 59 59 58 57 56 54 54 55 58 59 59 59 60 60 60 59 59 58 56 56 57 55 53 52 52 51 47 44 46 48
58 58 58 58 58 56 55 54 54 56 59 58 58 57 58 58 59 58 58 58 57 56 56 55 54 53 51 51 51 50 48 44
58 57 57 58 58 56 55 54 54 55 58 57 57 57 57 56 56 57 57 57 57 57 56 55 54 53 53 53 51 51 48 47
56 56 56 58 57 55 55 55 54 55 58 57 57 56 56 56 55 55 55 56 56 56 55 54 54 54 54 53 52 51 50 49
55 56 56 57 56 55 55 54 55 55 56 57 57 57 56 57 56 56 55 56 56 56 55 54 54 55 54 54 54 52 52 50

GFSFLT2_sfc_30mbdewp_087.txt.gz
Dewpoint
66 67 67 68 68 69 69 70 69 69 68 68 67 66 65 66 65 65 65 65 64 64 66 67 67 66 65 64 63 63 61 62
66 67 67 67 67 68 68 69 69 69 69 67 66 65 65 65 65 65 64 64 64 64 63 65 66 65 64 63 63 62 60 60
67 67 66 67 67 67 68 68 68 68 68 66 65 63 65 65 65 64 63 63 64 65 65 66 65 64 63 63 62 59 60 61
66 67 67 68 65 67 66 65 65 65 64 65 63 63 64 64 64 64 63 64 64 65 65 65 64 63 63 62 59 58 59 60
63 66 67 67 66 66 65 65 66 66 65 64 63 64 65 64 64 64 64 63 62 65 65 64 61 62 62 61 59 58 57 59
62 64 66 64 62 63 62 67 67 65 65 65 64 64 64 64 62 62 61 63 62 63 64 63 62 61 61 59 58 57 53 57
61 63 65 63 64 65 65 65 66 66 65 65 65 63 64 62 61 60 60 63 62 61 61 61 61 60 59 58 57 53 50 52
61 62 64 63 65 65 65 65 66 66 65 64 64 63 62 62 61 60 61 63 62 61 61 61 61 60 58 57 52 51 50 49
58 63 63 63 63 64 64 65 65 64 64 64 63 62 61 61 60 62 61 62 63 61 61 61 60 58 57 53 51 51 50 49
55 62 62 63 61 61 63 64 64 63 63 63 63 62 61 60 61 62 63 62 63 61 61 60 58 56 54 53 50 50 49 48
52 62 62 62 61 61 60 62 63 62 63 63 63 62 62 62 62 63 63 62 62 62 61 60 57 55 54 52 49 47 48 48
53 62 61 62 62 61 60 60 60 61 62 63 63 62 61 62 61 62 62 62 61 61 60 60 58 54 52 49 49 49 48 48
54 61 61 62 61 60 58 59 59 60 61 62 62 62 62 62 62 61 62 60 60 60 59 58 57 54 52 52 53 53 52 52
55 60 61 62 60 59 58 58 57 59 60 61 61 61 62 61 61 61 61 60 60 60 59 57 57 54 51 51 51 52 53 53
54 58 60 61 59 58 57 57 57 58 59 58 60 61 61 61 61 61 60 60 59 59 59 57 55 53 53 50 49 46 51 53
54 57 59 60 59 57 56 55 54 56 55 56 58 59 59 60 61 61 60 59 58 59 59 57 55 53 53 51 49 45 48 50
54 57 58 59 58 57 56 54 52 53 55 57 58 59 59 59 60 60 59 59 58 58 57 58 57 54 53 52 50 48 49 47
56 57 57 58 58 57 56 54 52 53 56 58 58 58 57 58 58 59 59 58 58 58 57 57 57 54 53 52 50 48 48 46
57 58 58 57 58 56 56 54 54 53 56 57 57 57 57 56 56 56 58 58 58 58 58 58 58 55 54 53 52 52 50 48
58 58 57 57 57 56 55 54 53 53 56 57 58 57 57 56 56 56 57 57 58 58 58 58 59 56 55 54 53 52 52 50